| time (UTC) | temp F | wind direction | speed MPH | gust MPH | rain 1hr in | rain 24hr in | rain mn in | humidity % | barometer mb |
| 20260903073038 | 65 | 138 | 0.0 | 0.0 | 0.00 | 0.37 | 0.37 | 1 | 1011.2 |
| 20260903071538 | 65 | 138 | 0.0 | 0.0 | 0.00 | 0.37 | 0.37 | 1 | 1011.1 |
| 20260903070034 | 65 | 171 | 0.0 | 2.0 | 0.00 | 0.37 | 0.37 | 1 | 1011.0 |
| 20260903064529 | 65 | 165 | 0.0 | 3.0 | 0.00 | 0.37 | 0.37 | 1 | 1011.3 |
| 20260903063021 | 65 | 136 | 0.0 | 4.0 | 0.00 | 0.37 | 0.37 | 1 | 1010.9 |
| 20260903061517 | 65 | 165 | 3.0 | 5.0 | 0.00 | 0.37 | 0.37 | 1 | 1011.2 |
| 20260903060014 | 65 | 167 | 3.0 | 8.0 | 0.00 | 0.37 | 0.37 | 1 | 1011.0 |
| 20260903054512 | 65 | 360 | 3.0 | 9.0 | 0.01 | 0.37 | 0.37 | 1 | 1010.8 |
| 20260903053001 | 65 | 164 | 5.0 | 9.0 | 0.01 | 0.37 | 0.37 | 1 | 1010.9 |
| 20260903051601 | 65 | 169 | 3.0 | 7.0 | 0.01 | 0.37 | 0.37 | 1 | 1011.1 |
| 20260903050053 | 65 | 184 | 2.0 | 10.0 | 0.01 | 0.37 | 0.37 | 1 | 1011.4 |
| 20260903044547 | 65 | 135 | 2.0 | 7.0 | 0.00 | 0.36 | 0.36 | 1 | 1011.8 |
| 20260903043015 | 64 | 181 | 3.0 | 8.0 | 0.00 | 0.36 | 0.36 | 1 | 1012.2 |
| 20260903041515 | 64 | 177 | 5.0 | 9.0 | 0.03 | 0.36 | 0.36 | 1 | 1011.5 |
| 20260903040002 | 64 | 181 | 3.0 | 10.0 | 0.06 | 0.36 | 0.36 | 1 | 1011.4 |
| 20260903034559 | 64 | 179 | 5.0 | 10.0 | 0.07 | 0.36 | 0.36 | 1 | 1011.1 |
| 20260903033053 | 64 | 190 | 4.0 | 12.0 | 0.10 | 0.36 | 0.36 | 1 | 1011.3 |
| 20260903031550 | 65 | 146 | 7.0 | 11.0 | 0.08 | 0.33 | 0.33 | 1 | 1012.2 |
| 20260903030042 | 65 | 178 | 5.0 | 8.0 | 0.06 | 0.30 | 0.30 | 1 | 1012.9 |
| 20260903024544 | 65 | 145 | 7.0 | 9.0 | 0.04 | 0.28 | 0.28 | 1 | 1012.4 |
| 20260903023033 | 65 | 161 | 6.0 | 10.0 | 0.02 | 0.26 | 0.26 | 1 | 1012.5 |
| 20260903021535 | 66 | 149 | 6.0 | 11.0 | 0.01 | 0.25 | 0.25 | 1 | 1012.6 |
| 20260903020023 | 66 | 151 | 6.0 | 11.0 | 0.00 | 0.24 | 0.24 | 1 | 1013.4 |
| 20260903014519 | 67 | 163 | 4.0 | 10.0 | 0.00 | 0.24 | 0.24 | 1 | 1013.4 |
| 20260903013013 | 67 | 172 | 6.0 | 10.0 | 0.00 | 0.24 | 0.24 | 1 | 1013.7 |
| 20260903011510 | 67 | 169 | 6.0 | 11.0 | 0.00 | 0.24 | 0.24 | 1 | 1013.7 |
| 20260903010007 | 67 | 195 | 6.0 | 14.0 | 0.00 | 0.24 | 0.24 | 1 | 1013.3 |
| 20260903004513 | 68 | 175 | 9.0 | 16.0 | 0.00 | 0.24 | 0.24 | 1 | 1013.3 |
| 20260903003006 | 68 | 165 | 6.0 | 10.0 | 0.00 | 0.24 | 0.24 | 1 | 1013.0 |
| 20260903001502 | 68 | 148 | 6.0 | 11.0 | 0.00 | 0.24 | 0.24 | 1 | 1012.8 |
| 20260903000031 | 68 | 205 | 2.0 | 6.0 | 0.00 | 0.24 | 0.24 | 1 | 1013.1 |
| 20260902234531 | 69 | 163 | 4.0 | 11.0 | 0.00 | 0.24 | 0.24 | 1 | 1012.7 |
| 20260902233027 | 69 | 184 | 8.0 | 14.0 | 0.00 | 0.24 | 0.24 | 1 | 1011.8 |
| 20260902231520 | 69 | 194 | 5.0 | 7.0 | 0.00 | 0.24 | 0.24 | 1 | 1012.0 |
| 20260902230015 | 70 | 184 | 5.0 | 9.0 | 0.00 | 0.24 | 0.24 | 1 | 1012.5 |
| 20260902224510 | 70 | 82 | 3.0 | 7.0 | 0.00 | 0.24 | 0.24 | 1 | 1013.1 |
| 20260902223005 | 71 | 76 | 3.0 | 10.0 | 0.00 | 0.24 | 0.24 | 1 | 1013.4 |
| 20260902221502 | 71 | 20 | 4.0 | 9.0 | 0.00 | 0.24 | 0.24 | 1 | 1013.6 |
| 20260902220059 | 72 | 17 | 3.0 | 8.0 | 0.00 | 0.24 | 0.24 | 1 | 1013.7 |
| 20260902214557 | 72 | 13 | 4.0 | 8.0 | 0.00 | 0.24 | 0.24 | 1 | 1013.7 |
| 20260902213048 | 72 | 15 | 4.0 | 10.0 | 0.00 | 0.24 | 0.24 | 3 | 1013.8 |
| 20260902211544 | 73 | 12 | 4.0 | 10.0 | 0.00 | 0.24 | 0.24 | 5 | 1013.7 |
| 20260902210052 | 74 | 11 | 5.0 | 9.0 | 0.00 | 0.24 | 0.24 | 5 | 1013.6 |
| 20260902204535 | 74 | 11 | 4.0 | 10.0 | 0.00 | 0.24 | 0.24 | 1 | 1013.7 |
| 20260902203027 | 74 | 9 | 2.0 | 5.0 | 0.00 | 0.24 | 0.24 | 4 | 1013.8 |
| 20260902201527 | 74 | 9 | 1.0 | 6.0 | 0.00 | 0.24 | 0.24 | 12 | 1013.8 |
| 20260902200024 | 74 | 9 | 5.0 | 11.0 | 0.00 | 0.24 | 0.24 | 24 | 1013.9 |
| 20260902194516 | 74 | 5 | 4.0 | 14.0 | 0.00 | 0.24 | 0.24 | 26 | 1013.9 |
| 20260902193131 | 73 | 5 | 6.0 | 13.0 | 0.00 | 0.25 | 0.24 | 28 | 1014.4 |
| 20260902191536 | 74 | 9 | 5.0 | 15.0 | 0.00 | 0.25 | 0.24 | 25 | 1014.2 |
| 20260902190030 | 73 | 5 | 6.0 | 14.0 | 0.00 | 0.25 | 0.24 | 19 | 1014.1 |
| 20260902184524 | 73 | 5 | 9.0 | 14.0 | 0.00 | 0.25 | 0.24 | 17 | 1014.2 |
| 20260902183019 | 73 | 235 | 6.0 | 14.0 | 0.00 | 0.25 | 0.24 | 1 | 1014.6 |
| 20260902181514 | 71 | 9 | 7.0 | 17.0 | 0.02 | 0.25 | 0.24 | 1 | 1014.5 |
| 20260902180009 | 70 | 11 | 10.0 | 18.0 | 0.04 | 0.25 | 0.24 | 1 | 1014.4 |
| 20260902174502 | 68 | 190 | 10.0 | 19.0 | 0.05 | 0.25 | 0.24 | 1 | 1014.3 |
| 20260902173059 | 67 | 108 | 8.0 | 14.0 | 0.09 | 0.25 | 0.24 | 1 | 1014.2 |
| 20260902171600 | 67 | 104 | 8.0 | 18.0 | 0.10 | 0.23 | 0.22 | 1 | 1014.0 |
| 20260902170053 | 67 | 92 | 9.0 | 15.0 | 0.12 | 0.21 | 0.20 | 1 | 1014.3 |
| 20260902164543 | 67 | 119 | 10.0 | 16.0 | 0.16 | 0.20 | 0.19 | 1 | 1014.7 |
| 20260902163052 | 67 | 106 | 5.0 | 10.0 | 0.14 | 0.16 | 0.14 | 1 | 1015.5 |
| 20260902161534 | 68 | 129 | 6.0 | 12.0 | 0.12 | 0.14 | 0.12 | 1 | 1016.0 |
| 20260902160030 | 68 | 100 | 2.0 | 4.0 | 0.08 | 0.10 | 0.08 | 1 | 1016.0 |
| 20260902154522 | 67 | 94 | 0.0 | 1.0 | 0.03 | 0.05 | 0.03 | 1 | 1015.6 |
| 20260902153021 | 66 | 5 | 0.0 | 2.0 | 0.00 | 0.02 | 0.02 | 96 | 1015.0 |
| 20260902151513 | 66 | 5 | 0.0 | 2.0 | 0.00 | 0.02 | 0.02 | 96 | 1015.3 |
| 20260902150009 | 66 | 5 | 1.0 | 3.0 | 0.00 | 0.02 | 0.02 | 96 | 1015.2 |
| 20260902144502 | 66 | 12 | 1.0 | 3.0 | 0.00 | 0.02 | 0.02 | 96 | 1015.5 |
| 20260902143059 | 66 | 12 | 0.0 | 2.0 | 0.00 | 0.02 | 0.02 | 97 | 1015.3 |
| 20260902141554 | 66 | 12 | 0.0 | 2.0 | 0.00 | 0.02 | 0.02 | 97 | 1015.3 |
| 20260902140050 | 66 | 12 | 1.0 | 4.0 | 0.00 | 0.02 | 0.02 | 97 | 1015.3 |
| 20260902134557 | 66 | 45 | 0.0 | 1.0 | 0.00 | 0.02 | 0.02 | 97 | 1015.2 |
| 20260902133038 | 66 | 15 | 1.0 | 3.0 | 0.00 | 0.02 | 0.02 | 97 | 1014.9 |
| 20260902131544 | 66 | 13 | 0.0 | 2.0 | 0.00 | 0.02 | 0.02 | 98 | 1015.0 |
| 20260902130029 | 66 | 13 | 1.0 | 3.0 | 0.00 | 0.02 | 0.02 | 98 | 1015.2 |
| 20260902124602 | 65 | 13 | 0.0 | 3.0 | 0.00 | 0.02 | 0.02 | 98 | 1015.2 |
| 20260902123053 | 65 | 15 | 1.0 | 3.0 | 0.00 | 0.02 | 0.02 | 98 | 1015.1 |
| 20260902121548 | 65 | 15 | 1.0 | 3.0 | 0.00 | 0.02 | 0.02 | 98 | 1015.0 |
| 20260902120048 | 65 | 15 | 0.0 | 2.0 | 0.00 | 0.02 | 0.02 | 99 | 1014.8 |
| 20260902114551 | 65 | 15 | 0.0 | 2.0 | 0.00 | 0.02 | 0.02 | 99 | 1014.7 |
| 20260902113046 | 65 | 15 | 0.0 | 2.0 | 0.00 | 0.14 | 0.02 | 99 | 1014.6 |
| 20260902111516 | 65 | 15 | 0.0 | 2.0 | 0.00 | 0.14 | 0.02 | 98 | 1014.6 |
| 20260902110008 | 65 | 15 | 1.0 | 3.0 | 0.00 | 0.14 | 0.02 | 98 | 1014.7 |
| 20260902104501 | 65 | 14 | 0.0 | 3.0 | 0.00 | 0.14 | 0.02 | 98 | 1014.9 |
| 20260902103104 | 65 | 15 | 1.0 | 4.0 | 0.00 | 0.15 | 0.02 | 98 | 1015.0 |
| 20260902101552 | 65 | 14 | 0.0 | 3.0 | 0.00 | 0.15 | 0.02 | 98 | 1014.9 |
| 20260902100104 | 65 | 15 | 0.0 | 0.0 | 0.00 | 0.15 | 0.02 | 98 | 1015.0 |
| 20260902094513 | 66 | 19 | 0.0 | 0.0 | 0.00 | 0.15 | 0.02 | 98 | 1014.8 |
| 20260902093009 | 66 | 45 | 0.0 | 0.0 | 0.00 | 0.28 | 0.02 | 98 | 1014.8 |
| 20260902091501 | 66 | 45 | 0.0 | 0.0 | 0.00 | 0.28 | 0.02 | 98 | 1014.6 |
| 20260902090104 | 66 | 45 | 0.0 | 0.0 | 0.00 | 0.28 | 0.02 | 98 | 1014.6 |
| 20260902084554 | 66 | 45 | 0.0 | 0.0 | 0.00 | 0.28 | 0.02 | 98 | 1014.5 |
| 20260902083049 | 66 | 45 | 0.0 | 0.0 | 0.00 | 0.28 | 0.02 | 98 | 1014.4 |
| 20260902081541 | 66 | 45 | 0.0 | 0.0 | 0.00 | 0.28 | 0.02 | 98 | 1014.4 |
| 20260902080052 | 66 | 45 | 0.0 | 0.0 | 0.00 | 0.28 | 0.02 | 98 | 1014.3 |
| 20260902074534 | 66 | 45 | 0.0 | 0.0 | 0.00 | 0.28 | 0.02 | 98 | 1014.5 |